When you browse on this site, cookies collect data to enhance your experience and personalize the content and advertising you see.
Visit our Privacy Policy to learn more. By continuing to use the site, you agree to this use of cookies and data.
  • En España
  • Lista de países
  • Para 7 días
  • Temperatura del agua
  • Mapa Satelital
  • El tiempo en el mapa
  • Informadores
  • user-avatar
    Iniciar sesión

    Tiempo cada hora Annaba

    Hoy, 20 Enero, Domingo

    Tiempo Temperatura Precipitaciones Viento Presión Humedad
    00:00 +7°C° 0.1 mm 4 mps 759 mmHg 86%
    01:00 +7°C° 0 mm 4 mps 759 mmHg 84%
    02:00 +7°C° 0 mm 4 mps 759 mmHg 83%
    03:00 +8°C° 0 mm 3 mps 759 mmHg 82%
    04:00 +7°C° 0 mm 3 mps 758 mmHg 81%
    05:00 +7°C° 0 mm 3 mps 758 mmHg 81%
    06:00 +7°C° 0 mm 3 mps 758 mmHg 81%
    07:00 +7°C° 0 mm 3 mps 758 mmHg 81%
    08:00 +8°C° 0 mm 2 mps 758 mmHg 77%
    09:00 +10°C° 0 mm 2 mps 758 mmHg 73%
    10:00 +12°C° 0 mm 2 mps 758 mmHg 69%
    11:00 +14°C° 0 mm 2 mps 757 mmHg 62%
    12:00 +15°C° 0 mm 2 mps 757 mmHg 56%
    13:00 +17°C° 0 mm 2 mps 756 mmHg 50%
    14:00 +17°C° 0 mm 2 mps 756 mmHg 52%
    15:00 +17°C° 0 mm 2 mps 755 mmHg 53%
    16:00 +17°C° 0 mm 2 mps 755 mmHg 55%
    17:00 +16°C° 0.1 mm 2 mps 755 mmHg 59%
    18:00 +14°C° 0.1 mm 2 mps 755 mmHg 62%
    19:00 +13°C° 0.1 mm 2 mps 754 mmHg 66%
    20:00 +13°C° 0.2 mm 2 mps 754 mmHg 70%
    21:00 +12°C° 0.2 mm 2 mps 755 mmHg 75%
    22:00 +12°C° 0.2 mm 2 mps 755 mmHg 79%
    23:00 +10°C° 0.1 mm 2 mps 754 mmHg 81%

    Mañana, 21 Enero, Lunes

    Tiempo Temperatura Precipitaciones Viento Presión Humedad
    00:00 +10°C° 0.1 mm 2 mps 754 mmHg 82%
    01:00 +10°C° 0.1 mm 2 mps 754 mmHg 84%
    02:00 +10°C° 0.2 mm 2 mps 754 mmHg 85%
    03:00 +10°C° 0.2 mm 2 mps 754 mmHg 85%
    04:00 +10°C° 0.2 mm 2 mps 754 mmHg 85%
    05:00 +10°C° 0 mm 2 mps 754 mmHg 85%
    06:00 +9°C° 0 mm 2 mps 754 mmHg 85%
    07:00 +9°C° 0 mm 3 mps 754 mmHg 84%
    08:00 +10°C° 0 mm 2 mps 754 mmHg 80%
    09:00 +13°C° 0 mm 2 mps 754 mmHg 76%
    10:00 +14°C° 0 mm 2 mps 754 mmHg 72%
    11:00 +14°C° 0 mm 3 mps 754 mmHg 66%
    12:00 +16°C° 0 mm 3 mps 753 mmHg 61%
    13:00 +17°C° 0 mm 3 mps 753 mmHg 55%
    14:00 +17°C° 0.1 mm 4 mps 753 mmHg 58%
    15:00 +15°C° 0.1 mm 6 mps 753 mmHg 61%
    16:00 +15°C° 0.1 mm 7 mps 753 mmHg 64%
    17:00 +14°C° 0.2 mm 7 mps 753 mmHg 68%
    18:00 +12°C° 0.2 mm 7 mps 754 mmHg 73%
    19:00 +10°C° 0.2 mm 7 mps 754 mmHg 77%
    20:00 +10°C° 0.9 mm 9 mps 755 mmHg 81%
    21:00 +9°C° 0.9 mm 11 mps 756 mmHg 85%
    22:00 +9°C° 0.9 mm 13 mps 756 mmHg 88%
    23:00 +9°C° 1.5 mm 11 mps 756 mmHg 87%

    Pasado mañana, 22 Enero, Martes

    Tiempo Temperatura Precipitaciones Viento Presión Humedad
    00:00 +8°C° 1.5 mm 10 mps 757 mmHg 86%
    01:00 +9°C° 1.5 mm 8 mps 757 mmHg 85%
    02:00 +9°C° 0.8 mm 8 mps 757 mmHg 85%
    03:00 +9°C° 0.8 mm 8 mps 757 mmHg 84%
    04:00 +9°C° 0.8 mm 8 mps 757 mmHg 83%
    05:00 +7°C° 0.5 mm 8 mps 757 mmHg 83%
    06:00 +8°C° 0.5 mm 7 mps 758 mmHg 83%
    07:00 +8°C° 0.5 mm 7 mps 758 mmHg 83%
    08:00 +9°C° 0.5 mm 7 mps 758 mmHg 81%
    09:00 +9°C° 0.5 mm 7 mps 758 mmHg 79%
    10:00 +9°C° 0.5 mm 7 mps 759 mmHg 77%
    11:00 +10°C° 0.5 mm 7 mps 758 mmHg 74%
    12:00 +10°C° 0.5 mm 7 mps 758 mmHg 71%
    13:00 +11°C° 0.5 mm 7 mps 758 mmHg 68%
    14:00 +10°C° 0.4 mm 7 mps 757 mmHg 69%
    15:00 +10°C° 0.4 mm 6 mps 757 mmHg 71%
    16:00 +10°C° 0.4 mm 6 mps 756 mmHg 72%
    17:00 +9°C° 0.2 mm 5 mps 756 mmHg 75%
    18:00 +8°C° 0.2 mm 4 mps 756 mmHg 78%
    19:00 +7°C° 0.2 mm 4 mps 756 mmHg 81%
    20:00 +7°C° 0.3 mm 4 mps 755 mmHg 81%
    21:00 +6°C° 0.3 mm 4 mps 755 mmHg 81%
    22:00 +6°C° 0.3 mm 4 mps 755 mmHg 80%
    23:00 +6°C° 0 mm 4 mps 754 mmHg 79%

    23 Enero, Miércoles

    Tiempo Temperatura Precipitaciones Viento Presión Humedad
    00:00 +7°C° 0 mm 3 mps 753 mmHg 78%
    01:00 +7°C° 0 mm 3 mps 752 mmHg 77%
    02:00 +6°C° 0 mm 4 mps 751 mmHg 74%
    03:00 +6°C° 0 mm 4 mps 750 mmHg 72%
    04:00 +6°C° 0 mm 4 mps 749 mmHg 70%
    05:00 +6°C° 0.2 mm 5 mps 748 mmHg 70%
    06:00 +6°C° 0.2 mm 5 mps 747 mmHg 70%
    07:00 +6°C° 0.2 mm 5 mps 747 mmHg 70%
    08:00 +6°C° 0.3 mm 7 mps 747 mmHg 71%
    09:00 +7°C° 0.3 mm 8 mps 747 mmHg 72%
    10:00 +8°C° 0.3 mm 9 mps 747 mmHg 73%
    11:00 +7°C° 1.6 mm 8 mps 747 mmHg 77%
    12:00 +6°C° 1.6 mm 7 mps 746 mmHg 81%
    13:00 +7°C° 1.6 mm 5 mps 746 mmHg 84%
    14:00 +6°C° 2.7 mm 7 mps 746 mmHg 84%
    15:00 +6°C° 2.7 mm 8 mps 746 mmHg 83%
    16:00 +5°C° 2.7 mm 9 mps 746 mmHg 83%
    17:00 +5°C° 0.7 mm 8 mps 746 mmHg 81%
    18:00 +4°C° 0.7 mm 7 mps 746 mmHg 79%
    19:00 +4°C° 0.7 mm 6 mps 746 mmHg 77%
    20:00 +4°C° 0.8 mm 6 mps 746 mmHg 77%
    21:00 +4°C° 0.8 mm 7 mps 746 mmHg 77%
    22:00 +4°C° 0.8 mm 7 mps 746 mmHg 78%
    23:00 +3°C° 0.8 mm 7 mps 746 mmHg 78%

    24 Enero, Jueves

    Tiempo Temperatura Precipitaciones Viento Presión Humedad
    00:00 +2°C° 0.8 mm 8 mps 745 mmHg 77%
    01:00 +2°C° 0.8 mm 8 mps 745 mmHg 77%
    02:00 +2°C° 0.9 mm 10 mps 744 mmHg 78%
    03:00 +2°C° 0.9 mm 11 mps 744 mmHg 78%
    04:00 +1°C° 0.9 mm 13 mps 743 mmHg 79%
    05:00 +3°C° 1.4 mm 13 mps 743 mmHg 80%
    06:00 +3°C° 1.4 mm 14 mps 742 mmHg 81%
    07:00 +3°C° 1.4 mm 14 mps 742 mmHg 82%
    08:00 +4°C° 2.1 mm 13 mps 743 mmHg 81%
    09:00 +4°C° 2.1 mm 12 mps 743 mmHg 81%
    10:00 +6°C° 2.1 mm 11 mps 744 mmHg 80%
    11:00 +6°C° 1 mm 10 mps 744 mmHg 78%
    12:00 +7°C° 1 mm 9 mps 745 mmHg 76%
    13:00 +7°C° 1 mm 8 mps 745 mmHg 73%
    14:00 +7°C° 2 mm 9 mps 745 mmHg 79%
    15:00 +7°C° 2 mm 9 mps 746 mmHg 85%
    16:00 +6°C° 2 mm 9 mps 746 mmHg 91%
    17:00 +7°C° 1.7 mm 10 mps 747 mmHg 88%
    18:00 +8°C° 1.7 mm 11 mps 748 mmHg 85%
    19:00 +8°C° 1.7 mm 12 mps 748 mmHg 82%
    20:00 +8°C° 1.4 mm 11 mps 750 mmHg 83%
    21:00 +8°C° 1.4 mm 11 mps 751 mmHg 84%
    22:00 +7°C° 1.4 mm 11 mps 752 mmHg 84%
    23:00 +7°C° 0.7 mm 10 mps 752 mmHg 84%

    25 Enero, Viernes

    Tiempo Temperatura Precipitaciones Viento Presión Humedad
    00:00 +7°C° 0.7 mm 10 mps 753 mmHg 84%
    01:00 +7°C° 0.7 mm 10 mps 753 mmHg 83%
    02:00 +7°C° 0.7 mm 10 mps 753 mmHg 82%
    03:00 +6°C° 0.7 mm 9 mps 753 mmHg 81%
    04:00 +6°C° 0.7 mm 9 mps 754 mmHg 80%
    05:00 +6°C° 0.4 mm 8 mps 754 mmHg 80%
    06:00 +5°C° 0.4 mm 7 mps 754 mmHg 80%
    07:00 +5°C° 0.4 mm 6 mps 754 mmHg 81%
    08:00 +5°C° 0.6 mm 6 mps 755 mmHg 80%
    09:00 +7°C° 0.6 mm 5 mps 755 mmHg 79%
    10:00 +8°C° 0.6 mm 5 mps 756 mmHg 78%
    11:00 +8°C° 1 mm 5 mps 756 mmHg 79%
    12:00 +8°C° 1 mm 4 mps 755 mmHg 79%
    13:00 +8°C° 1 mm 4 mps 755 mmHg 79%
    14:00 +8°C° 0.8 mm 4 mps 755 mmHg 79%
    15:00 +8°C° 0.8 mm 4 mps 755 mmHg 78%
    16:00 +8°C° 0.8 mm 4 mps 755 mmHg 77%
    17:00 +7°C° 0.5 mm 4 mps 756 mmHg 79%
    18:00 +6°C° 0.5 mm 4 mps 756 mmHg 82%
    19:00 +5°C° 0.5 mm 5 mps 757 mmHg 84%
    20:00 +5°C° 0.1 mm 5 mps 757 mmHg 85%
    21:00 +3°C° 0.1 mm 5 mps 757 mmHg 85%
    22:00 +3°C° 0.1 mm 5 mps 758 mmHg 85%
    23:00 +4°C° 0 mm 4 mps 758 mmHg 84%
    Mostrar más